2017-071M

Last updated on Wed Jan 17 2018 00:19:53 GMT+0000 (Coordinated Universal Time)

1 43048U 17071M 18016.17028270 .00004978 00000-0 14140-3 0 9999 2 43048 51.6406 61.4914 0003781 99.9268 260.2143 15.37989208 6219
UTC large
Height (km)
Speed (km/s)
/
Latitude / Longitude
Inclination (degrees)
Orbital Period (minutes)
Azimuth
Elevation
Range (km)
Doppler Factor

Next 0 passes for location: London (51.5072 / 0.1276)

Sorry there are no passes over London.